| time (UTC) | temp F | wind direction | speed MPH | gust MPH | rain 1hr in | rain 24hr in | rain mn in | humidity % | barometer mb |
| 20260510001918 | 65 | 253 | 7.0 | 10.0 | 0.00 | 0.00 | 0.00 | 88 | 1012.2 |
| 20260510001416 | 65 | 246 | 8.0 | 10.0 | 0.00 | 0.00 | 0.00 | 88 | 1012.2 |
| 20260510000913 | 66 | 235 | 7.0 | 8.0 | 0.00 | 0.00 | 0.00 | 87 | 1012.5 |
| 20260510000411 | 66 | 253 | 12.0 | 14.0 | 0.00 | 0.00 | 0.00 | 86 | 1012.5 |
| 20260509235905 | 66 | 244 | 5.0 | 8.0 | 0.00 | 0.00 | 0.00 | 85 | 1012.5 |
| 20260509235402 | 67 | 269 | 9.0 | 14.0 | 0.00 | 0.00 | 0.00 | 83 | 1012.5 |
| 20260509234858 | 67 | 226 | 9.0 | 13.0 | 0.00 | 0.00 | 0.00 | 83 | 1012.2 |
| 20260509234356 | 66 | 251 | 7.0 | 9.0 | 0.00 | 0.00 | 0.00 | 85 | 1012.2 |
| 20260509233854 | 68 | 238 | 9.0 | 11.0 | 0.00 | 0.00 | 0.00 | 83 | 1012.5 |
| 20260509233351 | 66 | 253 | 8.0 | 9.0 | 0.00 | 0.00 | 0.00 | 86 | 1012.2 |
| 20260509232846 | 68 | 257 | 9.0 | 14.0 | 0.00 | 0.00 | 0.00 | 82 | 1012.5 |
| 20260509232345 | 67 | 233 | 8.0 | 10.0 | 0.00 | 0.00 | 0.00 | 83 | 1012.5 |
| 20260509231840 | 67 | 236 | 7.0 | 8.0 | 0.00 | 0.00 | 0.00 | 83 | 1012.5 |
| 20260509231337 | 67 | 261 | 8.0 | 13.0 | 0.00 | 0.00 | 0.00 | 83 | 1012.5 |
| 20260509230835 | 68 | 147 | 4.0 | 5.0 | 0.00 | 0.00 | 0.00 | 82 | 1012.5 |
| 20260509230332 | 68 | 265 | 4.0 | 6.0 | 0.00 | 0.00 | 0.00 | 82 | 1012.2 |
| 20260509225827 | 68 | 232 | 7.0 | 13.0 | 0.00 | 0.00 | 0.00 | 83 | 1012.5 |
| 20260509225324 | 68 | 243 | 11.0 | 11.0 | 0.00 | 0.00 | 0.00 | 81 | 1012.5 |
| 20260509224820 | 68 | 232 | 9.0 | 10.0 | 0.00 | 0.00 | 0.00 | 82 | 1012.9 |
| 20260509224316 | 68 | 232 | 10.0 | 14.0 | 0.00 | 0.00 | 0.00 | 81 | 1012.5 |
| 20260509223813 | 68 | 245 | 7.0 | 8.0 | 0.00 | 0.00 | 0.00 | 81 | 1012.5 |
| 20260509223310 | 68 | 199 | 5.0 | 7.0 | 0.00 | 0.00 | 0.00 | 82 | 1012.9 |
| 20260509222806 | 68 | 249 | 10.0 | 14.0 | 0.00 | 0.00 | 0.00 | 81 | 1012.5 |
| 20260509222306 | 68 | 265 | 9.0 | 13.0 | 0.00 | 0.00 | 0.00 | 82 | 1012.9 |
| 20260509221753 | 68 | 263 | 9.0 | 11.0 | 0.00 | 0.00 | 0.00 | 82 | 1012.9 |
| 20260509221249 | 68 | 212 | 7.0 | 8.0 | 0.00 | 0.00 | 0.00 | 81 | 1012.9 |
| 20260509220745 | 68 | 241 | 8.0 | 9.0 | 0.00 | 0.00 | 0.00 | 83 | 1013.2 |
| 20260509220242 | 67 | 259 | 8.0 | 9.0 | 0.00 | 0.00 | 0.00 | 84 | 1013.2 |
| 20260509215737 | 68 | 277 | 10.0 | 14.0 | 0.00 | 0.00 | 0.00 | 84 | 1013.5 |
| 20260509215234 | 69 | 243 | 8.0 | 10.0 | 0.00 | 0.00 | 0.00 | 81 | 1013.2 |
| 20260509214731 | 69 | 226 | 5.0 | 6.0 | 0.00 | 0.00 | 0.00 | 82 | 1013.2 |
| 20260509214228 | 68 | 250 | 8.0 | 10.0 | 0.00 | 0.00 | 0.00 | 82 | 1013.2 |
| 20260509213725 | 69 | 216 | 6.0 | 10.0 | 0.00 | 0.00 | 0.00 | 82 | 1013.2 |
| 20260509213220 | 70 | 223 | 8.0 | 10.0 | 0.00 | 0.00 | 0.00 | 81 | 1013.5 |
| 20260509212718 | 69 | 252 | 9.0 | 11.0 | 0.00 | 0.00 | 0.00 | 81 | 1013.2 |
| 20260509212215 | 70 | 267 | 4.0 | 6.0 | 0.00 | 0.00 | 0.00 | 81 | 1013.5 |
| 20260509211710 | 70 | 244 | 9.0 | 10.0 | 0.00 | 0.00 | 0.00 | 78 | 1013.5 |
| 20260509211202 | 69 | 242 | 7.0 | 8.0 | 0.00 | 0.00 | 0.00 | 80 | 1013.5 |
| 20260509210658 | 70 | 255 | 6.0 | 7.0 | 0.00 | 0.00 | 0.00 | 82 | 1013.5 |
| 20260509210156 | 71 | 220 | 3.0 | 3.0 | 0.00 | 0.00 | 0.00 | 78 | 1013.9 |
| 20260509205650 | 71 | 233 | 6.0 | 10.0 | 0.00 | 0.00 | 0.00 | 78 | 1013.5 |
| 20260509205150 | 69 | 222 | 6.0 | 10.0 | 0.00 | 0.00 | 0.00 | 80 | 1013.5 |
| 20260509204646 | 71 | 281 | 8.0 | 10.0 | 0.00 | 0.00 | 0.00 | 78 | 1013.9 |
| 20260509204142 | 72 | 263 | 5.0 | 6.0 | 0.00 | 0.00 | 0.00 | 77 | 1013.9 |
| 20260509203639 | 71 | 241 | 4.0 | 6.0 | 0.00 | 0.00 | 0.00 | 79 | 1013.5 |
| 20260509203137 | 71 | 251 | 9.0 | 10.0 | 0.00 | 0.00 | 0.00 | 76 | 1013.9 |
| 20260509202637 | 71 | 240 | 8.0 | 9.0 | 0.00 | 0.00 | 0.00 | 77 | 1014.2 |
| 20260509202133 | 72 | 264 | 2.0 | 5.0 | 0.00 | 0.00 | 0.00 | 75 | 1013.9 |
| 20260509201628 | 72 | 264 | 2.0 | 5.0 | 0.00 | 0.00 | 0.00 | 75 | 1013.9 |
| 20260509201125 | 71 | 230 | 5.0 | 7.0 | 0.00 | 0.00 | 0.00 | 77 | 1013.5 |
| 20260509200621 | 70 | 250 | 6.0 | 7.0 | 0.00 | 0.00 | 0.00 | 80 | 1013.9 |
| 20260509200117 | 70 | 273 | 7.0 | 9.0 | 0.00 | 0.00 | 0.00 | 78 | 1013.9 |
| 20260509195613 | 71 | 227 | 6.0 | 8.0 | 0.00 | 0.00 | 0.00 | 77 | 1013.9 |
| 20260509195107 | 70 | 227 | 4.0 | 7.0 | 0.00 | 0.00 | 0.00 | 78 | 1014.2 |
| 20260509194606 | 70 | 281 | 10.0 | 11.0 | 0.00 | 0.00 | 0.00 | 78 | 1013.9 |
| 20260509194105 | 70 | 252 | 7.0 | 8.0 | 0.00 | 0.00 | 0.00 | 80 | 1013.9 |
| 20260509193601 | 69 | 265 | 9.0 | 10.0 | 0.00 | 0.00 | 0.00 | 81 | 1014.2 |
| 20260509193057 | 70 | 267 | 9.0 | 9.0 | 0.00 | 0.00 | 0.00 | 79 | 1014.2 |
| 20260509192553 | 69 | 224 | 4.0 | 6.0 | 0.00 | 0.00 | 0.00 | 80 | 1014.2 |
| 20260509192049 | 69 | 246 | 6.0 | 8.0 | 0.00 | 0.00 | 0.00 | 82 | 1014.2 |
| 20260509191549 | 70 | 255 | 7.0 | 8.0 | 0.00 | 0.00 | 0.00 | 81 | 1014.2 |
| 20260509191045 | 70 | 255 | 7.0 | 8.0 | 0.00 | 0.00 | 0.00 | 81 | 1014.2 |
| 20260509190542 | 70 | 263 | 6.0 | 7.0 | 0.00 | 0.00 | 0.00 | 79 | 1014.6 |
| 20260509190040 | 70 | 248 | 6.0 | 7.0 | 0.00 | 0.00 | 0.00 | 78 | 1014.6 |
| 20260509185537 | 70 | 248 | 6.0 | 7.0 | 0.00 | 0.00 | 0.00 | 79 | 1014.6 |
| 20260509185033 | 69 | 290 | 7.0 | 8.0 | 0.00 | 0.00 | 0.00 | 81 | 1014.6 |
| 20260509184532 | 70 | 267 | 1.0 | 3.0 | 0.00 | 0.00 | 0.00 | 79 | 1014.6 |
| 20260509184027 | 70 | 206 | 0.0 | 0.0 | 0.00 | 0.00 | 0.00 | 79 | 1014.6 |
| 20260509183523 | 69 | 261 | 2.0 | 3.0 | 0.00 | 0.00 | 0.00 | 81 | 1014.6 |
| 20260509183019 | 69 | 206 | 0.0 | 0.0 | 0.00 | 0.00 | 0.00 | 81 | 1014.6 |
| 20260509182515 | 68 | 275 | 6.0 | 7.0 | 0.00 | 0.00 | 0.00 | 82 | 1014.6 |
| 20260509182013 | 68 | 264 | 0.0 | 0.0 | 0.00 | 0.00 | 0.00 | 82 | 1014.6 |
| 20260509181511 | 68 | 308 | 0.0 | 0.0 | 0.00 | 0.00 | 0.00 | 83 | 1014.6 |
| 20260509181008 | 67 | 284 | 1.0 | 2.0 | 0.00 | 0.00 | 0.00 | 84 | 1014.9 |
| 20260509180503 | 67 | 178 | 1.0 | 5.0 | 0.00 | 0.00 | 0.00 | 83 | 1014.6 |
| 20260509180001 | 67 | 246 | 0.0 | 0.0 | 0.00 | 0.00 | 0.00 | 84 | 1014.9 |
| 20260509175456 | 68 | 264 | 0.0 | 0.0 | 0.00 | 0.00 | 0.00 | 83 | 1014.6 |
| 20260509174953 | 67 | 286 | 0.0 | 0.0 | 0.00 | 0.00 | 0.00 | 83 | 1014.9 |
| 20260509174449 | 68 | 286 | 0.0 | 0.0 | 0.00 | 0.00 | 0.00 | 82 | 1014.9 |
| 20260509173945 | 68 | 103 | 0.0 | 0.0 | 0.00 | 0.00 | 0.00 | 81 | 1014.9 |
| 20260509173445 | 68 | 16 | 0.0 | 0.0 | 0.00 | 0.00 | 0.00 | 81 | 1014.9 |
| 20260509172942 | 68 | 109 | 0.0 | 0.0 | 0.00 | 0.00 | 0.00 | 83 | 1014.9 |
| 20260509172439 | 67 | 129 | 0.0 | 0.0 | 0.00 | 0.00 | 0.00 | 83 | 1014.9 |
| 20260509171934 | 68 | 58 | 0.0 | 0.0 | 0.00 | 0.00 | 0.00 | 83 | 1014.6 |
| 20260509171430 | 68 | 53 | 0.0 | 0.0 | 0.00 | 0.00 | 0.00 | 82 | 1014.6 |
| 20260509170927 | 66 | 65 | 0.0 | 0.0 | 0.00 | 0.00 | 0.00 | 84 | 1014.6 |
| 20260509170423 | 66 | 110 | 0.0 | 0.0 | 0.00 | 0.00 | 0.00 | 86 | 1014.6 |
| 20260509165919 | 65 | 132 | 0.0 | 0.0 | 0.00 | 0.00 | 0.00 | 86 | 1014.6 |
| 20260509165413 | 66 | 110 | 0.0 | 0.0 | 0.00 | 0.00 | 0.00 | 85 | 1014.6 |
| 20260509164909 | 66 | 89 | 0.0 | 0.0 | 0.00 | 0.00 | 0.00 | 85 | 1014.2 |
| 20260509164405 | 66 | 80 | 0.0 | 0.0 | 0.00 | 0.00 | 0.00 | 85 | 1014.6 |
| 20260509163901 | 66 | 24 | 0.0 | 0.0 | 0.00 | 0.00 | 0.00 | 86 | 1014.9 |
| 20260509163358 | 65 | 68 | 0.0 | 0.0 | 0.00 | 0.00 | 0.00 | 87 | 1014.6 |
| 20260509162857 | 65 | 77 | 1.0 | 1.0 | 0.00 | 0.00 | 0.00 | 87 | 1014.6 |
| 20260509162355 | 65 | 74 | 0.0 | 0.0 | 0.00 | 0.00 | 0.00 | 87 | 1014.6 |
| 20260509161852 | 65 | 114 | 0.0 | 0.0 | 0.00 | 0.00 | 0.00 | 87 | 1014.9 |
| 20260509161348 | 64 | 50 | 0.0 | 0.0 | 0.00 | 0.00 | 0.00 | 88 | 1014.6 |
| 20260509160844 | 64 | 56 | 0.0 | 0.0 | 0.00 | 0.00 | 0.00 | 88 | 1014.9 |
| 20260509160340 | 64 | 23 | 0.0 | 0.0 | 0.00 | 0.00 | 0.00 | 90 | 1014.6 |
| 20260509155835 | 64 | 8 | 0.0 | 0.0 | 0.00 | 0.00 | 0.00 | 90 | 1014.6 |
| 20260509155332 | 64 | 45 | 0.0 | 0.0 | 0.00 | 0.00 | 0.00 | 90 | 1014.9 |
| 20260509154828 | 63 | 59 | 0.0 | 0.0 | 0.00 | 0.00 | 0.00 | 90 | 1014.9 |
| 20260509154325 | 63 | 72 | 0.0 | 0.0 | 0.00 | 0.00 | 0.00 | 90 | 1014.6 |
| 20260509153822 | 63 | 66 | 0.0 | 2.0 | 0.00 | 0.00 | 0.00 | 91 | 1014.6 |
| 20260509153318 | 63 | 10 | 0.0 | 0.0 | 0.00 | 0.00 | 0.00 | 91 | 1014.6 |
| 20260509152815 | 63 | 15 | 0.0 | 0.0 | 0.00 | 0.00 | 0.00 | 91 | 1014.6 |
| 20260509152311 | 63 | 39 | 0.0 | 0.0 | 0.00 | 0.00 | 0.00 | 91 | 1014.9 |
| 20260509151809 | 63 | 70 | 0.0 | 0.0 | 0.00 | 0.00 | 0.00 | 91 | 1014.9 |
| 20260509151305 | 63 | 48 | 0.0 | 0.0 | 0.00 | 0.00 | 0.00 | 91 | 1014.6 |
| 20260509150804 | 62 | 101 | 0.0 | 0.0 | 0.00 | 0.00 | 0.00 | 92 | 1014.9 |
| 20260509150301 | 62 | 72 | 0.0 | 0.0 | 0.00 | 0.00 | 0.00 | 92 | 1014.9 |
| 20260509145758 | 62 | 82 | 0.0 | 0.0 | 0.00 | 0.00 | 0.00 | 93 | 1014.9 |
| 20260509145257 | 62 | 87 | 0.0 | 0.0 | 0.00 | 0.00 | 0.00 | 93 | 1014.9 |
| 20260509144754 | 62 | 72 | 0.0 | 0.0 | 0.00 | 0.00 | 0.00 | 93 | 1014.9 |
| 20260509144251 | 62 | 70 | 0.0 | 0.0 | 0.00 | 0.00 | 0.00 | 93 | 1014.6 |
| 20260509143748 | 61 | 58 | 0.0 | 0.0 | 0.00 | 0.00 | 0.00 | 94 | 1014.9 |
| 20260509143246 | 61 | 72 | 0.0 | 0.0 | 0.00 | 0.00 | 0.00 | 94 | 1014.6 |
| 20260509142741 | 61 | 58 | 0.0 | 0.0 | 0.00 | 0.00 | 0.00 | 94 | 1014.6 |
| 20260509142238 | 61 | 58 | 0.0 | 0.0 | 0.00 | 0.00 | 0.00 | 95 | 1014.6 |
| 20260509141733 | 61 | 59 | 0.0 | 0.0 | 0.00 | 0.00 | 0.00 | 95 | 1014.6 |
| 20260509141231 | 61 | 51 | 0.0 | 0.0 | 0.00 | 0.00 | 0.00 | 95 | 1014.6 |
| 20260509140728 | 61 | 53 | 0.0 | 0.0 | 0.00 | 0.00 | 0.00 | 96 | 1014.6 |
| 20260509140225 | 61 | 57 | 0.0 | 0.0 | 0.00 | 0.00 | 0.00 | 96 | 1014.6 |
| 20260509135722 | 60 | 59 | 0.0 | 0.0 | 0.00 | 0.00 | 0.00 | 96 | 1014.6 |
| 20260509135220 | 60 | 58 | 0.0 | 0.0 | 0.00 | 0.00 | 0.00 | 96 | 1014.6 |
| 20260509134717 | 60 | 58 | 0.0 | 0.0 | 0.00 | 0.00 | 0.00 | 96 | 1014.2 |
| 20260509134214 | 60 | 58 | 0.0 | 0.0 | 0.00 | 0.00 | 0.00 | 97 | 1014.2 |
| 20260509133711 | 60 | 53 | 0.0 | 0.0 | 0.00 | 0.00 | 0.00 | 97 | 1014.6 |
| 20260509133208 | 60 | 56 | 0.0 | 0.0 | 0.00 | 0.00 | 0.00 | 97 | 1014.6 |
| 20260509132707 | 60 | 55 | 0.0 | 0.0 | 0.00 | 0.00 | 0.00 | 97 | 1014.2 |
| 20260509132205 | 60 | 54 | 0.0 | 0.0 | 0.00 | 0.00 | 0.00 | 97 | 1014.2 |
| 20260509131700 | 60 | 54 | 0.0 | 0.0 | 0.00 | 0.00 | 0.00 | 97 | 1014.2 |
| 20260509131152 | 60 | 61 | 0.0 | 0.0 | 0.00 | 0.00 | 0.00 | 97 | 1014.6 |
| 20260509130647 | 60 | 58 | 0.0 | 0.0 | 0.00 | 0.00 | 0.00 | 97 | 1014.2 |
| 20260509130144 | 60 | 59 | 0.0 | 0.0 | 0.00 | 0.00 | 0.00 | 97 | 1014.2 |
| 20260509125641 | 60 | 53 | 0.0 | 0.0 | 0.00 | 0.00 | 0.00 | 97 | 1013.9 |
| 20260509125137 | 60 | 51 | 0.0 | 0.0 | 0.00 | 0.00 | 0.00 | 97 | 1013.9 |
| 20260509124634 | 60 | 63 | 0.0 | 0.0 | 0.00 | 0.00 | 0.00 | 97 | 1013.9 |
| 20260509124131 | 60 | 63 | 0.0 | 0.0 | 0.00 | 0.00 | 0.00 | 97 | 1013.9 |
| 20260509123629 | 60 | 78 | 0.0 | 0.0 | 0.00 | 0.00 | 0.00 | 97 | 1013.9 |
| 20260509123125 | 60 | 73 | 0.0 | 0.0 | 0.00 | 0.00 | 0.00 | 98 | 1013.9 |
| 20260509122621 | 60 | 123 | 0.0 | 0.0 | 0.00 | 0.00 | 0.00 | 98 | 1014.2 |
| 20260509122119 | 59 | 66 | 0.0 | 0.0 | 0.00 | 0.00 | 0.00 | 98 | 1014.2 |
| 20260509121615 | 60 | 60 | 0.0 | 0.0 | 0.00 | 0.00 | 0.00 | 98 | 1014.2 |
| 20260509121113 | 59 | 69 | 0.0 | 0.0 | 0.00 | 0.00 | 0.00 | 98 | 1013.9 |
| 20260509120611 | 59 | 72 | 0.0 | 0.0 | 0.00 | 0.00 | 0.00 | 98 | 1013.9 |
| 20260509120109 | 60 | 135 | 0.0 | 0.0 | 0.00 | 0.00 | 0.00 | 98 | 1014.2 |
| 20260509115606 | 59 | 84 | 0.0 | 0.0 | 0.00 | 0.00 | 0.00 | 98 | 1014.2 |
| 20260509115103 | 59 | 125 | 0.0 | 0.0 | 0.00 | 0.00 | 0.00 | 98 | 1013.9 |
| 20260509114601 | 59 | 120 | 0.0 | 0.0 | 0.00 | 0.00 | 0.00 | 98 | 1014.2 |
| 20260509114100 | 59 | 62 | 0.0 | 0.0 | 0.00 | 0.00 | 0.00 | 98 | 1014.2 |
| 20260509113558 | 60 | 77 | 0.0 | 0.0 | 0.00 | 0.00 | 0.00 | 98 | 1014.2 |
| 20260509113055 | 59 | 77 | 0.0 | 0.0 | 0.00 | 0.00 | 0.00 | 98 | 1014.2 |
| 20260509112551 | 60 | 73 | 0.0 | 0.0 | 0.00 | 0.00 | 0.00 | 98 | 1013.9 |
| 20260509112048 | 60 | 79 | 0.0 | 0.0 | 0.00 | 0.00 | 0.00 | 98 | 1014.2 |
| 20260509111546 | 60 | 88 | 0.0 | 0.0 | 0.00 | 0.00 | 0.00 | 98 | 1014.2 |
| 20260509111043 | 60 | 78 | 0.0 | 0.0 | 0.00 | 0.00 | 0.00 | 98 | 1014.2 |
| 20260509110540 | 60 | 89 | 0.0 | 0.0 | 0.00 | 0.00 | 0.00 | 98 | 1014.2 |
| 20260509110037 | 60 | 85 | 0.0 | 0.0 | 0.00 | 0.00 | 0.00 | 98 | 1014.2 |
| 20260509105535 | 60 | 57 | 0.0 | 0.0 | 0.00 | 0.00 | 0.00 | 98 | 1014.2 |
| 20260509105032 | 60 | 65 | 0.0 | 0.0 | 0.00 | 0.00 | 0.00 | 97 | 1014.2 |
| 20260509104529 | 60 | 86 | 0.0 | 0.0 | 0.00 | 0.00 | 0.00 | 97 | 1014.2 |
| 20260509104026 | 60 | 59 | 0.0 | 0.0 | 0.00 | 0.00 | 0.00 | 97 | 1014.2 |
| 20260509103524 | 60 | 72 | 0.0 | 0.0 | 0.00 | 0.00 | 0.00 | 97 | 1014.2 |
| 20260509103022 | 60 | 81 | 0.0 | 0.0 | 0.00 | 0.00 | 0.00 | 97 | 1014.2 |
| 20260509102519 | 60 | 60 | 0.0 | 0.0 | 0.00 | 0.00 | 0.00 | 97 | 1014.2 |
| 20260509102015 | 60 | 82 | 0.0 | 0.0 | 0.00 | 0.00 | 0.00 | 97 | 1013.9 |
| 20260509101512 | 60 | 92 | 0.0 | 0.0 | 0.00 | 0.00 | 0.00 | 97 | 1014.2 |
| 20260509101009 | 60 | 61 | 0.0 | 0.0 | 0.00 | 0.00 | 0.00 | 97 | 1014.2 |
| 20260509100507 | 60 | 60 | 0.0 | 0.0 | 0.00 | 0.00 | 0.00 | 97 | 1014.2 |
| 20260509100004 | 60 | 73 | 0.0 | 0.0 | 0.00 | 0.00 | 0.00 | 96 | 1014.2 |
| 20260509095459 | 60 | 63 | 0.0 | 0.0 | 0.00 | 0.00 | 0.00 | 96 | 1014.2 |
| 20260509094956 | 60 | 90 | 0.0 | 0.0 | 0.00 | 0.00 | 0.00 | 96 | 1014.2 |
| 20260509094453 | 61 | 81 | 3.0 | 5.0 | 0.00 | 0.00 | 0.00 | 96 | 1014.6 |
| 20260509093950 | 61 | 51 | 0.0 | 0.0 | 0.00 | 0.00 | 0.00 | 95 | 1014.6 |
| 20260509093448 | 61 | 47 | 0.0 | 0.0 | 0.00 | 0.00 | 0.00 | 95 | 1014.6 |
| 20260509092946 | 61 | 5 | 0.0 | 0.0 | 0.00 | 0.00 | 0.00 | 95 | 1014.6 |
| 20260509092444 | 61 | 4 | 0.0 | 0.0 | 0.00 | 0.00 | 0.00 | 95 | 1014.6 |
| 20260509091942 | 61 | 356 | 0.0 | 0.0 | 0.00 | 0.00 | 0.00 | 95 | 1014.6 |
| 20260509091438 | 61 | 315 | 0.0 | 0.0 | 0.00 | 0.00 | 0.00 | 95 | 1014.2 |
| 20260509090936 | 61 | 291 | 0.0 | 0.0 | 0.00 | 0.00 | 0.00 | 95 | 1014.2 |
| 20260509090433 | 61 | 348 | 0.0 | 0.0 | 0.00 | 0.00 | 0.00 | 95 | 1014.6 |
| 20260509085930 | 61 | 298 | 0.0 | 0.0 | 0.00 | 0.00 | 0.00 | 95 | 1014.9 |
| 20260509085427 | 61 | 305 | 0.0 | 0.0 | 0.00 | 0.00 | 0.00 | 95 | 1014.2 |
| 20260509084923 | 61 | 318 | 0.0 | 0.0 | 0.00 | 0.00 | 0.00 | 95 | 1014.9 |
| 20260509084420 | 61 | 316 | 0.0 | 0.0 | 0.00 | 0.00 | 0.00 | 95 | 1014.6 |
| 20260509083918 | 61 | 294 | 0.0 | 0.0 | 0.00 | 0.00 | 0.00 | 94 | 1014.9 |
| 20260509083415 | 61 | 281 | 0.0 | 0.0 | 0.00 | 0.00 | 0.00 | 94 | 1014.6 |
| 20260509082912 | 61 | 287 | 0.0 | 0.0 | 0.00 | 0.00 | 0.00 | 94 | 1014.6 |
| 20260509082409 | 61 | 287 | 0.0 | 0.0 | 0.00 | 0.00 | 0.00 | 94 | 1014.6 |
| 20260509081905 | 61 | 328 | 0.0 | 0.0 | 0.00 | 0.00 | 0.00 | 94 | 1014.6 |
| 20260509081403 | 61 | 343 | 0.0 | 0.0 | 0.00 | 0.00 | 0.00 | 94 | 1014.9 |
| 20260509080900 | 61 | 334 | 0.0 | 0.0 | 0.00 | 0.00 | 0.00 | 94 | 1014.9 |
| 20260509080358 | 61 | 3 | 0.0 | 0.0 | 0.00 | 0.00 | 0.00 | 94 | 1014.9 |
| 20260509075857 | 61 | 349 | 0.0 | 0.0 | 0.00 | 0.00 | 0.00 | 94 | 1014.9 |
| 20260509075353 | 61 | 0 | 0.0 | 0.0 | 0.00 | 0.00 | 0.00 | 95 | 1014.9 |
| 20260509074850 | 61 | 356 | 0.0 | 0.0 | 0.00 | 0.00 | 0.00 | 95 | 1015.2 |
| 20260509074348 | 61 | 350 | 0.0 | 0.0 | 0.00 | 0.00 | 0.00 | 95 | 1015.2 |
| 20260509073844 | 61 | 310 | 0.0 | 0.0 | 0.00 | 0.00 | 0.00 | 95 | 1014.9 |
| 20260509073341 | 61 | 344 | 0.0 | 0.0 | 0.00 | 0.00 | 0.00 | 95 | 1015.2 |
| 20260509072837 | 61 | 341 | 0.0 | 0.0 | 0.00 | 0.00 | 0.00 | 95 | 1014.9 |
| 20260509072333 | 61 | 338 | 0.0 | 0.0 | 0.00 | 0.00 | 0.00 | 95 | 1015.2 |
| 20260509071830 | 61 | 335 | 0.0 | 0.0 | 0.00 | 0.00 | 0.00 | 95 | 1014.9 |
| 20260509071327 | 61 | 331 | 0.0 | 0.0 | 0.00 | 0.00 | 0.00 | 95 | 1015.2 |
| 20260509070824 | 60 | 310 | 0.0 | 0.0 | 0.00 | 0.00 | 0.00 | 95 | 1015.2 |
| 20260509070321 | 60 | 296 | 0.0 | 0.0 | 0.00 | 0.00 | 0.00 | 95 | 1015.2 |
| 20260509065817 | 60 | 308 | 0.0 | 0.0 | 0.00 | 0.00 | 0.00 | 95 | 1015.2 |
| 20260509065314 | 60 | 282 | 0.0 | 0.0 | 0.00 | 0.00 | 0.00 | 95 | 1015.2 |
| 20260509064810 | 60 | 295 | 0.0 | 0.0 | 0.00 | 0.00 | 0.00 | 95 | 1015.2 |
| 20260509064307 | 60 | 283 | 0.0 | 0.0 | 0.00 | 0.00 | 0.00 | 95 | 1015.2 |
| 20260509063805 | 60 | 285 | 0.0 | 0.0 | 0.00 | 0.00 | 0.00 | 96 | 1015.2 |
| 20260509063301 | 60 | 243 | 0.0 | 0.0 | 0.00 | 0.00 | 0.00 | 96 | 1015.2 |
| 20260509062758 | 60 | 258 | 0.0 | 0.0 | 0.00 | 0.00 | 0.00 | 96 | 1015.6 |
| 20260509062255 | 60 | 255 | 0.0 | 0.0 | 0.00 | 0.00 | 0.00 | 96 | 1015.6 |
| 20260509061752 | 60 | 214 | 0.0 | 0.0 | 0.00 | 0.00 | 0.00 | 97 | 1015.2 |
| 20260509061250 | 60 | 231 | 0.0 | 0.0 | 0.00 | 0.00 | 0.00 | 97 | 1015.2 |
| 20260509060747 | 60 | 259 | 0.0 | 0.0 | 0.00 | 0.00 | 0.00 | 97 | 1015.6 |
| 20260509060243 | 60 | 256 | 0.0 | 0.0 | 0.00 | 0.00 | 0.00 | 97 | 1015.6 |
| 20260509055739 | 60 | 271 | 0.0 | 0.0 | 0.00 | 0.00 | 0.00 | 97 | 1015.6 |
| 20260509055235 | 60 | 228 | 0.0 | 0.0 | 0.00 | 0.00 | 0.00 | 97 | 1015.6 |
| 20260509054732 | 60 | 240 | 0.0 | 0.0 | 0.00 | 0.00 | 0.00 | 97 | 1015.6 |
| 20260509054229 | 60 | 246 | 0.0 | 0.0 | 0.00 | 0.00 | 0.00 | 97 | 1015.2 |
| 20260509053727 | 59 | 243 | 0.0 | 0.0 | 0.00 | 0.00 | 0.00 | 97 | 1015.6 |
| 20260509053224 | 59 | 246 | 0.0 | 0.0 | 0.00 | 0.00 | 0.00 | 97 | 1015.6 |
| 20260509052722 | 59 | 264 | 0.0 | 0.0 | 0.00 | 0.00 | 0.00 | 97 | 1015.6 |
| 20260509052219 | 59 | 243 | 0.0 | 0.0 | 0.00 | 0.00 | 0.00 | 97 | 1015.2 |
| 20260509051717 | 59 | 235 | 0.0 | 0.0 | 0.00 | 0.00 | 0.00 | 97 | 1015.2 |
| 20260509051215 | 59 | 261 | 0.0 | 0.0 | 0.00 | 0.00 | 0.00 | 97 | 1015.6 |
| 20260509050711 | 59 | 235 | 0.0 | 0.0 | 0.00 | 0.00 | 0.00 | 97 | 1015.2 |
| 20260509050208 | 59 | 244 | 0.0 | 0.0 | 0.00 | 0.00 | 0.00 | 97 | 1015.6 |
| 20260509045705 | 59 | 243 | 0.0 | 0.0 | 0.00 | 0.00 | 0.00 | 97 | 1015.2 |
| 20260509045202 | 59 | 271 | 0.0 | 0.0 | 0.00 | 0.00 | 0.00 | 97 | 1015.2 |
| 20260509044659 | 59 | 244 | 0.0 | 0.0 | 0.00 | 0.00 | 0.00 | 97 | 1015.2 |
| 20260509044156 | 60 | 235 | 0.0 | 0.0 | 0.00 | 0.00 | 0.00 | 97 | 1015.2 |
| 20260509043653 | 60 | 219 | 0.0 | 0.0 | 0.00 | 0.00 | 0.00 | 97 | 1015.6 |
| 20260509043148 | 60 | 250 | 0.0 | 0.0 | 0.00 | 0.00 | 0.00 | 96 | 1015.2 |
| 20260509042645 | 60 | 232 | 0.0 | 0.0 | 0.00 | 0.00 | 0.00 | 96 | 1015.2 |
| 20260509042141 | 60 | 241 | 0.0 | 0.0 | 0.00 | 0.00 | 0.00 | 96 | 1015.2 |
| 20260509041638 | 60 | 260 | 0.0 | 0.0 | 0.00 | 0.00 | 0.00 | 96 | 1015.2 |
| 20260509041135 | 60 | 236 | 7.0 | 8.0 | 0.00 | 0.00 | 0.00 | 96 | 1015.2 |
| 20260509040634 | 60 | 238 | 3.0 | 5.0 | 0.00 | 0.00 | 0.00 | 96 | 1015.2 |
| 20260509040131 | 60 | 235 | 0.0 | 1.0 | 0.00 | 0.00 | 0.00 | 96 | 1014.9 |
| 20260509035627 | 60 | 241 | 7.0 | 9.0 | 0.00 | 0.00 | 0.00 | 96 | 1014.9 |
| 20260509035124 | 60 | 269 | 0.0 | 2.0 | 0.00 | 0.00 | 0.00 | 96 | 1014.9 |
| 20260509034622 | 60 | 275 | 0.0 | 0.0 | 0.00 | 0.00 | 0.00 | 96 | 1014.9 |
| 20260509034119 | 60 | 207 | 2.0 | 3.0 | 0.00 | 0.00 | 0.00 | 96 | 1014.9 |
| 20260509033615 | 60 | 259 | 0.0 | 0.0 | 0.00 | 0.00 | 0.00 | 96 | 1014.9 |
| 20260509033112 | 60 | 260 | 5.0 | 10.0 | 0.00 | 0.00 | 0.00 | 96 | 1014.9 |
| 20260509032610 | 60 | 186 | 0.0 | 0.0 | 0.00 | 0.00 | 0.00 | 96 | 1014.9 |
| 20260509032107 | 61 | 243 | 2.0 | 6.0 | 0.00 | 0.00 | 0.00 | 96 | 1014.6 |
| 20260509031604 | 61 | 225 | 0.0 | 0.0 | 0.00 | 0.00 | 0.00 | 96 | 1014.6 |
| 20260509031102 | 61 | 245 | 0.0 | 0.0 | 0.00 | 0.00 | 0.00 | 96 | 1014.9 |
| 20260509030600 | 61 | 230 | 0.0 | 0.0 | 0.00 | 0.00 | 0.00 | 96 | 1014.6 |
| 20260509030056 | 61 | 253 | 5.0 | 7.0 | 0.00 | 0.00 | 0.00 | 96 | 1014.6 |
| 20260509025552 | 61 | 242 | 1.0 | 2.0 | 0.00 | 0.00 | 0.00 | 95 | 1014.6 |
| 20260509025048 | 61 | 235 | 0.0 | 0.0 | 0.00 | 0.00 | 0.00 | 95 | 1014.2 |
| 20260509024544 | 61 | 243 | 0.0 | 0.0 | 0.00 | 0.00 | 0.00 | 95 | 1014.6 |
| 20260509024040 | 61 | 238 | 6.0 | 9.0 | 0.00 | 0.00 | 0.00 | 95 | 1014.6 |
| 20260509023538 | 61 | 262 | 0.0 | 0.0 | 0.00 | 0.00 | 0.00 | 95 | 1014.6 |
| 20260509023035 | 61 | 278 | 3.0 | 5.0 | 0.00 | 0.00 | 0.00 | 95 | 1014.2 |
| 20260509022531 | 61 | 277 | 0.0 | 1.0 | 0.00 | 0.00 | 0.00 | 95 | 1014.2 |
| 20260509022029 | 61 | 225 | 4.0 | 7.0 | 0.00 | 0.00 | 0.00 | 95 | 1014.2 |
| 20260509021526 | 61 | 231 | 5.0 | 7.0 | 0.00 | 0.00 | 0.00 | 95 | 1014.2 |
| 20260509021023 | 61 | 244 | 4.0 | 8.0 | 0.00 | 0.00 | 0.00 | 95 | 1014.2 |
| 20260509020521 | 62 | 269 | 6.0 | 7.0 | 0.00 | 0.00 | 0.00 | 95 | 1014.2 |
| 20260509020018 | 62 | 245 | 9.0 | 10.0 | 0.00 | 0.00 | 0.00 | 94 | 1014.2 |
| 20260509015517 | 62 | 217 | 0.0 | 0.0 | 0.00 | 0.00 | 0.00 | 94 | 1014.2 |
| 20260509015014 | 62 | 228 | 4.0 | 6.0 | 0.00 | 0.00 | 0.00 | 94 | 1014.2 |
| 20260509014510 | 63 | 245 | 6.0 | 8.0 | 0.00 | 0.00 | 0.00 | 93 | 1013.9 |
| 20260509014006 | 63 | 269 | 0.0 | 0.0 | 0.00 | 0.00 | 0.00 | 92 | 1014.2 |
| 20260509013504 | 63 | 232 | 5.0 | 8.0 | 0.00 | 0.00 | 0.00 | 92 | 1014.2 |
| 20260509012959 | 63 | 239 | 9.0 | 11.0 | 0.00 | 0.00 | 0.00 | 92 | 1013.9 |
| 20260509012455 | 63 | 244 | 9.0 | 11.0 | 0.00 | 0.00 | 0.00 | 92 | 1014.2 |
| 20260509011953 | 63 | 243 | 5.0 | 6.0 | 0.00 | 0.00 | 0.00 | 91 | 1014.2 |
| 20260509011450 | 64 | 268 | 11.0 | 14.0 | 0.00 | 0.00 | 0.00 | 91 | 1014.2 |
| 20260509010948 | 64 | 202 | 6.0 | 10.0 | 0.00 | 0.00 | 0.00 | 90 | 1014.2 |
| 20260509010446 | 64 | 155 | 0.0 | 1.0 | 0.00 | 0.00 | 0.00 | 91 | 1014.2 |
| 20260509005942 | 64 | 237 | 10.0 | 11.0 | 0.00 | 0.00 | 0.00 | 91 | 1013.9 |
| 20260509005440 | 64 | 231 | 7.0 | 11.0 | 0.00 | 0.00 | 0.00 | 91 | 1013.9 |
| 20260509004940 | 64 | 279 | 1.0 | 3.0 | 0.00 | 0.00 | 0.00 | 90 | 1014.2 |
| 20260509004437 | 65 | 204 | 5.0 | 8.0 | 0.00 | 0.00 | 0.00 | 89 | 1014.2 |
| 20260509003935 | 66 | 233 | 8.0 | 11.0 | 0.00 | 0.00 | 0.00 | 87 | 1014.2 |
| 20260509003433 | 66 | 221 | 5.0 | 7.0 | 0.00 | 0.00 | 0.00 | 87 | 1014.6 |
| 20260509002929 | 66 | 302 | 6.0 | 8.0 | 0.00 | 0.00 | 0.00 | 87 | 1014.2 |
| 20260509002427 | 67 | 153 | 8.0 | 9.0 | 0.00 | 0.00 | 0.00 | 85 | 1014.2 |